2018-083C (43664 NORAD) Tracking and Keplerian Element Data

This shows tracking and keplerian element data for the satellite.

Feedback or suggestion? Click here.




ElementValue
Catalog43664
Name2018-083C
Epoch Orbit275
Epoch Day320.16802358
Epoch Year2018
RAAN340.8961
Inclination97.5189
Eccentricity0.0011503
Argument of Perigee200.2148
Mean Anonmoly245.6513
Mean Motion15.16582968
Decay Rate6.98E-06
L11 43664U 18083C 18320.16802358 .00000698 00000-0 39151-4 0 9996
L22 43664 97.5189 340.8961 0011503 200.2148 245.6513 15.16582968 2753

Live tracking and technical data element details for 2018-083C (NORAD 43664). 2018-083C can be tracked NOW for your location showing map with azimuth and elevation plus other details from your city location.

Track the satellite on the map from your city or location and see movement details for azimuth, elevation, latitude, longitude, range, height, and movement on the map or in text.







IsCatalogInMostPopularTable: catalog: 43664, numindb: 6
Update: records affected: 1



GetName: 43664 2018-083C

Hit Count: updated at: Sat, 17 Nov 2018 02:31:03 GMT